Torna al catalogo

COSMOS 2251 DEB

AttivoLEO
NORAD 37533·DEBRIS·🇷🇺 Russia

Lanciato Jun 16, 1993 da Plesetsk Cosmodrome

Loading…

Prossimi Passaggi (prossime 24 ore)

TLE

ObsoletoSource: Space-Track

Epoca: Sep 2, 2026, 21:49 UTC

1 37533U 93036BNN 26245.90946049  .00001002  00000-0  48457-3 0  9996
2 37533  74.0653  85.5376 0157922  78.5051 283.3775 14.13422093666523

Traccia COSMOS 2251 DEB in tempo reale con AllMySat

Download on the App Store